Location: Newark
(25.6108°S, 54.5803°W)
Time: 23:25:22
(UTC+00:00)

Tiros 1 - Pass Details

Date: 01 November 2020
Orbit: 630 x 664 km, 48.4° (Epoch: 29 November)

Event Time Altitude Azimuth Distance (km) Brightness Sun altitude
Rises 17:50:13 0° 262° (W) 2,980 11.1 53.7°
Reaches altitude 10° 17:54:00 10° 232° (SW) 2,082 10.3 52.8°
Maximum altitude 17:55:59 12° 208° (SSW) 1,933 9.9 52.4°
Drops below altitude 10° 17:57:59 10° 183° (S) 2,094 9.9 52.0°
Sets 18:01:49 0° 153° (SSE) 3,016 10.4 51.1°
